Flag for U.S.A. Weather past 2 weeks in Pueblo, Colorado, U.S.A.

Now
80 °F

Scattered clouds.


Feels Like: 80 °F
Forecast: 68 / 87 °F
Wind: 7 mph from West

Location: Pueblo Memorial Airport

Current Time: Aug 3, 2015 at 11:35:06 AM

Latest Report: Aug 3, 2015 at 10:53 AM


Visibility: 10 mi

Pressure: 29.85 "Hg (25.36 "Hg at 1430m altitude)

Humidity: 39%

Dew point: 53 °F

Location of PuebloLocation

Historic Weather in Pueblo — Graph

°F

Pueblo temperature yesterday

Maximum temperature yesterday: 94 °F (at 2:53 PM)
Minimum temperature yesterday: 67 °F (at 5:53 AM)
Average temperature yesterday: 80 °F

Past Weeks' High & Low Weather Summary

 TemperatureHumidityPressure
High100 °F (Jul 23, 1:53 PM)85% (Jul 21, 11:53 PM)30.14 "Hg (Jul 21, 11:53 PM)
Low58 °F (Jul 22, 5:53 AM)10% (Jul 23, 4:53 PM)29.60 "Hg (Jul 27, 5:53 PM)
Average79 °F43%29.88 "Hg
* Reported Jul 19 9:53 AM — Aug 3 9:53 AM, Pueblo, Weather by CustomWeather, © 2015

Note: Actual official high and low records may vary slightly from our data, if they occured in-between our weather recording intervals... More about our weather records

Advertising

Pueblo weather history for previous 24 hours

 ConditionsComfort  
Time TempWeatherWind HumidityBarometerVisibility
9:53 AM
Mon, Aug 3
80 °FSunny.6 mph41%29.85 "Hg10 mi
8:53 AM74 °FSunny.7 mph53%29.86 "Hg10 mi
7:53 AM73 °FSunny.3 mph53%29.85 "Hg10 mi
6:53 AM69 °FClear.No wind66%29.84 "Hg10 mi
5:53 AM68 °FClear.No wind70%29.82 "Hg10 mi
4:53 AM69 °FClear.No wind66%29.82 "Hg10 mi
3:53 AM69 °FClear.No wind63%29.82 "Hg10 mi
2:53 AM71 °FClear.No wind57%29.82 "Hg10 mi
1:53 AM72 °FClear.7 mph57%29.82 "Hg10 mi
12:53 AM72 °FClear.6 mph55%29.83 "Hg10 mi
11:53 PM
Sun, Aug 2
74 °FClear.5 mph50%29.83 "Hg10 mi
10:53 PM77 °FClear.6 mph42%29.84 "Hg10 mi
9:53 PM78 °FPassing clouds.6 mph39%29.84 "Hg10 mi
8:53 PM80 °FSunny.8 mph36%29.83 "Hg10 mi
7:53 PM84 °FScattered clouds.14 mph31%29.81 "Hg10 mi
6:53 PM90 °FPassing clouds.16 mph20%29.77 "Hg10 mi
5:53 PM92 °FSunny.12 mph16%29.77 "Hg10 mi
4:53 PM93 °FSunny.14 mph16%29.77 "Hg10 mi
3:53 PM94 °FSunny.17 mph17%29.77 "Hg10 mi
2:53 PM94 °FSunny.9 mph20%29.79 "Hg10 mi
1:53 PM93 °FSunny.N/A22%29.80 "Hg10 mi
12:53 PM91 °FSunny.No wind24%29.82 "Hg10 mi
11:53 AM86 °FSunny.6 mph31%29.85 "Hg10 mi
Weather by CustomWeather, © 2015

See weather overviewHow to use our weather pages